HS5XCL-1 Weather Reports


time (UTC)temp
C
wind
direction
speed
KPH
gust
KPH
rain 1hr
cm
rain 24hr
cm
rain mn
cm
humidity
%
barometer
mb
20260504222604 31 0 0.0 0.0 0.00 0.00 0.00 100 966.0
20260504221554 31 0 0.0 0.0 0.00 0.00 0.00 100 966.0
20260504220544 31 0 0.0 0.0 0.00 0.00 0.00 100 966.0
20260504215534 31 0 0.0 0.0 0.00 0.00 0.00 100 966.0
20260504214524 31 0 0.0 0.0 0.00 0.00 0.00 100 967.0
20260504213514 31 0 0.0 0.0 0.00 0.00 0.00 100 967.0
20260504212504 31 0 0.0 0.0 0.00 0.00 0.00 100 967.0
20260504211454 31 0 0.0 0.0 0.00 0.00 0.00 100 967.0
20260504210444 31 0 0.0 0.0 0.00 0.00 0.00 100 967.0
20260504205434 31 0 0.0 0.0 0.00 0.00 0.00 100 967.0
20260504204424 31 0 0.0 0.0 0.00 0.00 0.00 100 967.0
20260504203414 31 0 0.0 0.0 0.00 0.00 0.00 100 967.0
20260504202404 31 0 0.0 0.0 0.00 0.00 0.00 100 967.0
20260504201353 31 0 0.0 0.0 0.00 0.00 0.00 100 967.0
20260504200343 32 0 0.0 0.0 0.00 0.00 0.00 100 967.0
20260504195555 31 0 0.0 0.0 0.00 0.00 0.00 100 967.0
20260504194545 31 0 0.0 0.0 0.00 0.00 0.00 100 967.0
20260504193535 31 0 0.0 0.0 0.00 0.00 0.00 100 967.0
20260504192524 31 0 0.0 0.0 0.00 0.00 0.00 100 967.0
20260504191514 32 0 0.0 0.0 0.00 0.00 0.00 100 967.0
20260504190504 32 0 0.0 0.0 0.00 0.00 0.00 100 967.0
20260504185454 32 0 0.0 0.0 0.00 0.00 0.00 100 967.0
20260504184444 31 0 0.0 0.0 0.00 0.00 0.00 100 967.0
20260504183434 32 0 0.0 0.0 0.00 0.00 0.00 100 967.0
20260504182424 32 0 0.0 0.0 0.00 0.00 0.00 100 967.0
20260504181414 32 0 0.0 0.0 0.00 0.00 0.00 100 967.0
20260504180404 32 0 0.0 0.0 0.00 0.00 0.00 100 967.0
20260504175354 32 0 0.0 0.0 0.00 0.00 0.00 100 967.0
20260504174344 31 0 0.0 0.0 0.00 0.00 0.00 100 967.0
20260504173334 31 0 0.0 0.0 0.00 0.00 0.00 100 967.0
20260504172324 31 0 0.0 0.0 0.00 0.00 0.00 100 967.0
20260504171314 32 0 0.0 0.0 0.00 0.00 0.00 100 967.0
20260504170305 32 0 0.0 0.0 0.00 0.00 0.00 100 967.0
20260504160205 33 0 0.0 0.0 0.00 0.00 0.00 100 967.0
20260504151115 36 0 0.0 0.0 0.00 0.00 0.00 100 965.0
20260504150105 36 0 0.0 0.0 0.00 0.00 0.00 100 965.0
20260504141016 38 0 0.0 0.0 0.00 0.00 0.00 100 964.0
20260504110713 42 0 0.0 0.0 0.00 0.00 0.00 100 961.0
20260504100613 42 0 0.0 0.0 0.00 0.00 0.00 100 961.0
20260504081423 43 0 0.0 0.0 0.00 0.00 0.00 100 962.0
20260504080413 43 0 0.0 0.0 0.00 0.00 0.00 100 962.0
20260504070312 42 0 0.0 0.0 0.00 0.00 0.00 100 964.0
20260504060212 40 0 0.0 0.0 0.00 0.00 0.00 100 965.0
20260504050112 38 0 0.0 0.0 0.00 0.00 0.00 100 966.0
20260504045102 38 0 0.0 0.0 0.00 0.00 0.00 100 966.0
20260504044052 38 0 0.0 0.0 0.00 0.00 0.00 100 966.0
20260504043042 38 0 0.0 0.0 0.00 0.00 0.00 100 966.0
20260504042032 39 0 0.0 0.0 0.00 0.00 0.00 100 966.0
20260504041022 38 0 0.0 0.0 0.00 0.00 0.00 100 966.0
20260504040012 37 0 0.0 0.0 0.00 0.00 0.00 100 966.0
20260504035002 37 0 0.0 0.0 0.00 0.00 0.00 100 967.0
20260504033952 36 0 0.0 0.0 0.00 0.00 0.00 100 967.0
20260504032942 36 0 0.0 0.0 0.00 0.00 0.00 100 967.0
20260504031932 36 0 0.0 0.0 0.00 0.00 0.00 100 967.0
20260504030922 36 0 0.0 0.0 0.00 0.00 0.00 100 967.0
20260504025912 35 0 0.0 0.0 0.00 0.00 0.00 100 967.0
20260504024902 35 0 0.0 0.0 0.00 0.00 0.00 100 967.0
20260504023852 35 0 0.0 0.0 0.00 0.00 0.00 100 967.0
20260504022842 34 0 0.0 0.0 0.00 0.00 0.00 100 967.0
20260504021832 34 0 0.0 0.0 0.00 0.00 0.00 100 967.0
20260504020822 33 0 0.0 0.0 0.00 0.00 0.00 100 967.0
20260504015812 33 0 0.0 0.0 0.00 0.00 0.00 100 967.0
20260504014802 33 0 0.0 0.0 0.00 0.00 0.00 100 967.0
20260504013753 33 0 0.0 0.0 0.00 0.00 0.00 100 967.0
20260504012742 33 0 0.0 0.0 0.00 0.00 0.00 100 967.0
20260504011731 33 0 0.0 0.0 0.00 0.00 0.00 100 967.0
20260504010721 33 0 0.0 0.0 0.00 0.00 0.00 100 966.0
20260504005711 32 0 0.0 0.0 0.00 0.00 0.00 100 966.0
20260504004702 32 0 0.0 0.0 0.00 0.00 0.00 100 966.0
20260504003651 32 0 0.0 0.0 0.00 0.00 0.00 100 966.0
20260504002641 32 0 0.0 0.0 0.00 0.00 0.00 100 966.0
20260504001631 32 0 0.0 0.0 0.00 0.00 0.00 100 966.0
20260504000621 32 0 0.0 0.0 0.00 0.00 0.00 100 966.0
20260503235611 32 0 0.0 0.0 0.00 0.00 0.00 100 966.0
20260503234601 31 0 0.0 0.0 0.00 0.00 0.00 100 966.0
20260503233551 31 0 0.0 0.0 0.00 0.00 0.00 100 966.0
20260503232541 32 0 0.0 0.0 0.00 0.00 0.00 100 966.0
20260503231531 31 0 0.0 0.0 0.00 0.00 0.00 100 966.0
20260503230521 31 0 0.0 0.0 0.00 0.00 0.00 100 966.0
20260503225511 31 0 0.0 0.0 0.00 0.00 0.00 100 965.0
20260503224501 31 0 0.0 0.0 0.00 0.00 0.00 100 965.0
20260503223451 31 0 0.0 0.0 0.00 0.00 0.00 100 965.0